{"data":{"norad_id":63684,"intl_designator":"2025-085W","name":"STARLINK-33853","alt_names":[],"object_type":"PAYLOAD","status":"ACTIVE","operator":null,"country":"US","launch_date":"2025-04-28","launch_site_code":"AFETR","launch_vehicle":null,"mission":null,"orbit_class":"UNKNOWN","rcs_meters":null,"size_class":null,"mass_kg":null,"dimensions":null,"purposes":["comms"],"wikipedia_slug":null,"has_3d_model":false,"image_url":null,"decayed_at":null,"tle_current":{"epoch":"2026-09-20T14:32:43.044000Z","epoch_age_seconds":143486,"freshness":"FRESH","line1":"1 63684U 25085W   26263.60605375  .00007879  00000+0  29543-3 0  9994","line2":"2 63684  43.0054   9.8020 0002245 282.8944  77.1657 15.27594128 78680","mean_motion":15.27594128,"eccentricity":0.0002245,"inclination_deg":43.0054,"raan_deg":9.802,"arg_perigee_deg":282.8944,"mean_anomaly_deg":77.1657,"bstar":0.00029543,"rev_number":7868,"period_min":94.265876884806,"perigee_km":481.46646526986,"apogee_km":484.54711883249,"semimajor_km":6861.1437920512,"source":"CELESTRAK","updated_at":"2026-09-21T09:00:35.061044Z"}}}